NJE64E LFLJ-LFHM

Flight info

Callsign NJE64E
Flight time N/A
Altitude 14000
Route DCT PENJO/N0333F130
Aircraft C25B/M-SDE2E3FGHRWXY/LB1

Departure

Time 2026-04-19 11:56
Airport Courchevel Altiport (LFLJ)

Arrival

Time N/A
Airport Megève Altiport (LFHM)
Time Latitude Longitude Altitude Speed Heading
2026-04-19 11:44 45.39697 6.63255 6635 ft 0 kts 107°
2026-04-19 11:52 45.39693 6.63264 6638 ft 0 kts 128°
2026-04-19 11:53 45.39676 6.63274 6636 ft 5 kts 169°
2026-04-19 11:53 45.39665 6.63278 6636 ft 0 kts 163°
2026-04-19 11:54 45.39644 6.63286 6636 ft 9 kts 170°
2026-04-19 11:54 45.39583 6.63274 6636 ft 5 kts 173°
2026-04-19 11:55 45.39591 6.63286 6636 ft 6 kts 350°
2026-04-19 11:55 45.39602 6.63290 6636 ft 0 kts 43°
2026-04-19 11:55 45.39604 6.63293 6636 ft 10 kts 43°
2026-04-19 11:55 45.40012 6.63868 6408 ft 152 kts 37°
2026-04-19 11:56 45.40998 6.65030 7025 ft 214 kts 31°
2026-04-19 11:56 45.42511 6.65956 7666 ft 271 kts 10°
2026-04-19 11:56 45.44606 6.65841 7769 ft 333 kts 343°
2026-04-19 11:56 45.46558 6.64356 7894 ft 310 kts 326°
2026-04-19 11:57 45.48285 6.62529 8553 ft 304 kts 318°
2026-04-19 11:57 45.49764 6.60408 9353 ft 305 kts 311°
2026-04-19 11:57 45.51222 6.58037 9380 ft 330 kts 315°
2026-04-19 11:57 45.53019 6.55993 10130 ft 323 kts 325°
2026-04-19 11:58 45.54894 6.54483 11451 ft 297 kts 336°
2026-04-19 11:58 45.56779 6.53592 13041 ft 272 kts 341°
2026-04-19 11:58 45.58573 6.52736 13965 ft 280 kts 338°
2026-04-19 11:58 45.60474 6.51650 13993 ft 308 kts 335°
2026-04-19 11:59 45.62512 6.50463 13995 ft 333 kts 337°
2026-04-19 11:59 45.64751 6.49297 13988 ft 352 kts 342°
2026-04-19 11:59 45.67208 6.49115 13990 ft 355 kts
2026-04-19 11:59 45.69561 6.49949 13984 ft 355 kts 21°
2026-04-19 12:00 45.71631 6.51872 13992 ft 356 kts 38°
2026-04-19 12:00 45.73172 6.54649 13962 ft 359 kts 57°
2026-04-19 12:00 45.74028 6.58006 13903 ft 363 kts 77°
2026-04-19 12:00 45.74155 6.61613 13940 ft 360 kts 88°
2026-04-19 12:01 45.74656 6.65068 13941 ft 353 kts 62°
2026-04-19 12:01 45.76084 6.67921 13225 ft 362 kts 42°
2026-04-19 12:01 45.78214 6.69805 11718 ft 354 kts 16°
2026-04-19 12:01 45.80545 6.70694 10043 ft 345 kts 10°
2026-04-19 12:02 45.82928 6.71339 7921 ft 355 kts
2026-04-19 12:02 45.85189 6.70804 7327 ft 311 kts 339°
2026-04-19 12:02 45.87181 6.69643 6304 ft 303 kts 333°
2026-04-19 12:02 45.88934 6.68257 5814 ft 278 kts 326°
2026-04-19 12:03 45.90177 6.66432 5911 ft 236 kts 296°
2026-04-19 12:03 45.90193 6.64141 7036 ft 256 kts 246°
2026-04-19 12:03 45.88921 6.62331 7566 ft 252 kts 211°
2026-04-19 12:03 45.87238 6.61715 7787 ft 275 kts 182°
2026-04-19 12:04 45.85277 6.62722 6868 ft 328 kts 154°
2026-04-19 12:04 45.83041 6.64123 7146 ft 333 kts 164°
2026-04-19 12:04 45.80995 6.64599 8017 ft 271 kts 175°
2026-04-19 12:04 45.79059 6.65036 8582 ft 287 kts 172°
2026-04-19 12:05 45.77218 6.65384 9111 ft 248 kts 175°
2026-04-19 12:05 45.75643 6.65966 9447 ft 222 kts 136°
2026-04-19 12:05 45.75656 6.67820 9491 ft 209 kts 38°
2026-04-19 12:05 45.77035 6.68368 9548 ft 226 kts 356°
2026-04-19 12:06 45.78622 6.67822 9077 ft 234 kts 336°
2026-04-19 12:06 45.80095 6.66723 8211 ft 232 kts 330°
2026-04-19 12:06 45.81471 6.65581 5309 ft 272 kts 327°